Weather in Russkaya Techa

Russia / Chelyabinsk Oblast     55°45′30″N   62°11′35″E
temp.,
°C
wind,
m/s
gust,
m/s
humid.,
%
clouds,
%
prec.,
mm/h
press.,
hPa
HPBL,
m
6 may, thu
thu623:00+10wnw81568100 0.0 1001978
02:00+9w813600 0.1 10031003
05:00+7w813695 0.1 1006822
08:00+8w912605 0.0 10081030
11:00+10wnw10135135 0.0 10101748
14:00+12w10133987 0.0 10112158
17:00+12wnw9113874 0.0 10132170
20:00+10w6104731 0.0 1015557
7 may, fri
fri723:00+7w411585 0.0 1017273
02:00+5w49760 0.0 1019188
05:00+4w48880 0.0 1021132
08:00+10w356399 0.0 1022348
11:00+15w454419 0.0 10221250
14:00+18wsw453362 0.0 10211633
17:00+19wsw44295 0.0 10201750
20:00+16s22415 0.0 102016
8 may, sat
sat823:00+12ssw3648100 0.0 102073
02:00+11ssw3347100 0.0 102027
05:00+10s2247100 0.0 102018
08:00+14s2341100 0.0 1020181
11:00+19sse222899 0.0 10191847
14:00+20se222498 0.0 10182616
17:00+20se2225100 0.0 10172702
20:00+17se2236100 0.0 101714
9 may, sun
sun923:00+15ne2236100 0.0 101713
02:00+14nne3439100 0.0 101654
05:00+13ne3547100 0.0 101685
08:00+15nne454699 0.0 1017249
11:00+19ne4537100 0.0 10161492
14:00+21ene3629100 0.0 10162731
17:00+21ne563194 0.0 10162510
20:00+17n485129 0.0 1017197
10 may, mon
mon1023:00+12nne49695 0.0 1018160
02:00+11nne37765 0.0 1019116
05:00+10nne38825 0.0 1020142
08:00+15ne46645 0.0 1021477
11:00+19ne574762 0.0 10221851
14:00+20e454264 0.0 10221945
17:00+20ese444276 0.0 10221553
20:00+16s356551 0.0 1023123